Location: Nashville
(36.1660°N, 86.7840°W)
Time: 02:55:02
(UTC-05:00)

TIGRISAT - Visible Passes

Search period start: 16 May 2022 00:00
Search period end: 26 May 2022 00:00
Orbit: 605 x 686 km, 97.7° (Epoch: 15 May)

Date Brightness Start Highest point End Pass type
(mag) Time Alt. Az. Time Alt. Az. Time Alt. Az.
17 May ? 20:32:02 10° NNW 20:34:36 15° WNW 20:37:09 10° W visible
21 May ? 20:36:08 10° NW 20:38:16 13° WNW 20:40:22 10° W visible
25 May ? 20:40:20 10° NW 20:41:52 12° WNW 20:43:23 10° W visible
